DELTA 1 DEB, 21275

Orbit data source: Space-Track

DELTA 1 DEB, 21275 is space debris in SSO originally from a launch on Thu, 12 Jun 1975 UTC launched from the Air Force Western Test Range (AFWTR). Debris objects in space refer to the collection of defunct objects orbiting the Earth. Examples of debris include non-operational satellites, rocket bodies, and fragments generated from explosions, collisions, or faulty payload assembly.

Loading next visibility...
Identifier
21275, 1975-052L
Orbit
SSO
Country
Flag of USUS
Related business
Manufacturer
Unknown
Mission
Spacecraft
Bus & Motor
Unknown
Mass
Unknown
Launch date (UTC)
1975-06-12 (50 years ago)
Launch vehicle
Unknown
Launch site
Air Force Western Test Range (AFWTR)
Object type
Payload
Rocket body
Debris
Shape & HBR
Unknown shape, 0.2 m
Radar Cross Section
Small (<0.1 m²)

Expand to show TLE details & history
Last TLE update: 7 hours ago

TLE from 7 hours ago
0 DELTA 1 DEB
1 21275U 75052L   25300.36352308  .00000095  00000-0  21299-3 0  9996
2 21275  99.8814 204.2884 0034365  34.9972  76.1012 13.51852258700814
Epoch: 2025-10-27T08:43Z
TLE epoch observation values (Epoch: 2025-10-27T08:43:28.394Z)
Latitude
66.53736°
Longitude
-119.01383°
Altitude
1,070.807 km
Speed
7.326 km/s
True Right ascension
03h 11m 17s
True Declination
66° 25' 00"
Sunlit
Object was in full shadow at epoch
Visualization orbit readout
Latitude
Unknown
Longitude
Unknown
Altitude
Unknown
Speed
Unknown
Apparent Right ascension
Unknown
Apparent Declination
Unknown
Sunlit
N/A
Visualization observer readout
Local Sidereal Time
11:06:35
Azimuth
Unknown
Elevation
Unknown
Doppler factor
Unknown
Orbital elements
Apogee altitude
1,088.33 km
Perigee altitude
1,037.189 km
Semi-major axis
7,440.897 km
Eccentricity
0.00344
Inclination
99.8814°
RAAN
204.2884°
Arg. of periapsis
34.9972°
True anomaly
76.48386°
Mean anomaly
76.1012°
Eccentric anomaly
76.29249°
Mean motion
3.38147 °/min
Orbital period
106.46 mins
BSTAR
0.00021299
Loading maneuver chart data...
Computing Atmospheric mass density...
Loading historical data...
Loading historical data...
Loading historical data...
Loading historical data...
Loading historical data...
Loading historical data...
Loading historical data...

Documentation

Showing up to 5 results
|